Weather reports worldwide

Advertisment
Eindhoven, Netherlands (6370): temperature & dewpoint: 09.08.2020 22:00:00 - 15.08.2020 22:00:00 (CEST)Eindhoven, Netherlands (6370): temperature 5cm: 09.08.2020 22:00:00 - 15.08.2020 22:00:00 (CEST)Eindhoven, Netherlands (6370): wind speed & gusts: 09.08.2020 22:00:00 - 15.08.2020 22:00:00 (CEST)Eindhoven, Netherlands (6370): wind direction: 09.08.2020 22:00:00 - 15.08.2020 22:00:00 (CEST)Eindhoven, Netherlands (6370): reduced air pressure: 09.08.2020 22:00:00 - 15.08.2020 22:00:00 (CEST)Eindhoven, Netherlands (6370): visibility: 09.08.2020 22:00:00 - 15.08.2020 22:00:00 (CEST)Eindhoven, Netherlands (6370): precipitation: 09.08.2020 22:00:00 - 15.08.2020 22:00:00 (CEST)
Date & Time tt [°C] td [°C] tt 5cm [°C] ff [km/h] ff [kn] fx [km/h] fx [kn] dd ppp [hPa] vv [km] rr [mm]
15.08.2020 22:00:00 20,0 19,4 18,7 4 2 14 8 NNE 1013,9 5 0,0
15.08.2020 21:00:00 20,5 19,8 20,0 5 3 11 6 N 1013,9 5 0,0
15.08.2020 20:00:00 21,3 20,3 21,2 2 1 11 6 - 1013,6 9 0,0
15.08.2020 19:00:00 21,0 20,2 20,9 8 4 14 8 SW 1013,7 9 0,7
15.08.2020 18:00:00 21,6 19,7 21,9 16 9 25 14 S 1014,2 6 0,5
15.08.2020 17:00:00 27,8 16,8 30,0 2 1 14 8 - 1013,7 10 0,0
15.08.2020 16:00:00 26,5 17,0 28,1 8 4 18 10 E 1014,1 10 0,0
15.08.2020 15:00:00 28,0 16,7 31,2 5 3 14 8 - 1014,5 10 0,0
15.08.2020 14:00:00 27,2 17,3 28,3 4 2 14 8 - 1015,0 10 0,0
15.08.2020 13:00:00 26,7 17,2 31,9 5 3 14 8 ESE 1015,0 10 0,0
15.08.2020 12:00:00 25,4 18,5 28,0 5 3 14 8 - 1015,2 8 0,0
15.08.2020 11:00:00 23,9 18,7 26,4 2 1 11 6 - 1015,3 4,1 0,0
15.08.2020 10:00:00 21,2 18,8 22,2 4 2 14 8 - 1015,2 3,9 0,0
15.08.2020 09:00:00 19,4 18,7 19,8 4 2 7 4 - 1015,2 3,2 0,0
15.08.2020 08:00:00 18,0 18,0 18,1 4 2 4 2 - 1015,0 1,9 0,0
15.08.2020 07:00:00 16,8 16,8 14,7 2 1 4 2 S 1014,8 1,0 0,0
15.08.2020 06:00:00 16,8 16,8 14,7 4 2 4 2 SSW 1014,3 0,3 0,0
15.08.2020 05:00:00 16,9 16,9 15,0 5 3 7 4 W 1014,2 1,3 0,0
15.08.2020 04:00:00 17,6 17,6 16,0 4 2 7 4 WSW 1014,4 1,9 0,0
15.08.2020 03:00:00 18,3 18,0 16,7 4 2 11 6 W 1014,6 2,0 0,0
15.08.2020 02:00:00 18,9 18,5 18,1 4 2 7 4 - 1014,5 2,1 0,0
15.08.2020 01:00:00 18,5 18,3 16,8 2 1 7 4 - 1014,5 2,4 0,0
15.08.2020 00:00:00 18,6 18,2 17,9 9 5 14 8 SW 1014,4 2,8 0,0
14.08.2020 23:00:00 19,5 18,8 18,3 4 2 11 6 - 1014,4 4,2 0,0
14.08.2020 22:00:00 21,0 19,2 19,7 5 3 14 8 WNW 1013,9 7 0,0
14.08.2020 21:00:00 22,1 18,9 21,2 11 6 18 10 W 1013,4 10 0,0
14.08.2020 20:00:00 24,2 18,1 24,4 11 6 25 14 W 1013,2 10 0,0
14.08.2020 19:00:00 25,3 18,2 26,1 16 9 36 19 W 1012,7 10 0,0
14.08.2020 18:00:00 26,5 18,2 26,6 16 9 36 19 SSW 1012,5 10 0,0
14.08.2020 17:00:00 27,5 18,4 29,9 18 10 32 18 SW 1012,4 10 0,0
14.08.2020 16:00:00 26,9 18,3 29,1 22 12 36 19 SW 1012,4 10 0,0
14.08.2020 15:00:00 26,9 17,7 29,1 15 8 25 14 SSW 1012,6 10 0,0
14.08.2020 14:00:00 25,9 18,6 27,9 15 8 25 14 SSW 1012,9 10 0,0
14.08.2020 13:00:00 25,5 18,0 27,6 13 7 22 12 SSW 1012,9 10 0,0
14.08.2020 12:00:00 25,0 18,0 26,9 13 7 29 16 SW 1013,0 10 0,0
14.08.2020 11:00:00 25,7 18,4 28,1 13 7 25 14 SW 1012,9 10 0,0
14.08.2020 10:00:00 24,0 18,6 25,8 13 7 25 14 SSW 1012,6 10 0,0
14.08.2020 09:00:00 22,4 18,5 23,1 15 8 25 14 SSW 1012,5 10 0,0
14.08.2020 08:00:00 20,1 18,5 19,4 11 6 14 8 S 1012,4 5 0,0
14.08.2020 07:00:00 18,0 17,8 16,6 4 2 7 4 - 1012,4 5 0,0
14.08.2020 06:00:00 17,9 17,9 14,7 2 1 4 2 SW 1012,1 2,9 0,0
14.08.2020 05:00:00 18,1 17,8 15,0 0 0 4 2 N 1011,8 2,6 0,0
14.08.2020 04:00:00 19,0 18,7 16,4 4 2 7 4 S 1011,6 5 0,0
14.08.2020 03:00:00 18,9 18,7 17,5 5 3 14 8 S 1012,0 4,9 0,0
14.08.2020 02:00:00 19,4 18,7 18,1 2 1 7 4 - 1012,3 4,0 0,0
14.08.2020 01:00:00 19,8 19,1 19,0 4 2 14 8 - 1012,8 4,8 0,0
14.08.2020 00:00:00 19,5 19,0 18,6 4 2 14 8 SSW 1012,6 4,5 0,0
13.08.2020 23:00:00 20,5 19,7 19,5 11 6 14 8 SW 1012,3 9 0,0
13.08.2020 22:00:00 21,1 19,8 19,5 0 0 7 4 N 1011,6 10 0,0
13.08.2020 21:00:00 21,7 20,6 21,5 8 4 14 8 SW 1011,2 10 0,0
13.08.2020 20:00:00 22,7 19,9 22,1 5 3 22 12 NNE 1011,0 10 0,1
13.08.2020 19:00:00 24,7 18,6 24,7 22 12 40 21 SW 1011,5 10 0,0
13.08.2020 18:00:00 27,6 19,0 27,3 13 7 29 16 W 1010,3 10 0,0
13.08.2020 17:00:00 31,5 19,4 31,5 13 7 29 16 SW 1010,4 10 0,0
13.08.2020 16:00:00 33,7 17,1 36,9 13 7 29 16 - 1010,2 10 0,0
13.08.2020 15:00:00 33,4 17,0 36,9 9 5 22 12 SSW 1010,7 10 0,0
13.08.2020 14:00:00 31,9 18,0 35,4 8 4 22 12 - 1011,0 10 0,0
13.08.2020 13:00:00 29,8 19,1 33,2 4 2 14 8 - 1011,2 10 0,0
13.08.2020 12:00:00 28,0 19,4 29,4 4 2 14 8 - 1011,5 10 0,0
13.08.2020 11:00:00 25,3 19,3 26,0 5 3 14 8 S 1011,5 10 0,0
13.08.2020 10:00:00 24,7 20,2 25,4 11 6 14 8 S 1011,6 10 0,0
13.08.2020 09:00:00 22,7 20,1 23,0 8 4 14 8 S 1011,5 10 0,0
13.08.2020 08:00:00 21,3 19,6 20,8 8 4 11 6 - 1011,5 10 0,0
13.08.2020 07:00:00 20,8 19,1 19,9 8 4 29 16 SE 1011,5 10 3,1
13.08.2020 06:00:00 21,8 17,8 21,2 13 7 18 10 SE 1011,7 10 0,0
13.08.2020 05:00:00 22,0 17,7 21,4 11 6 18 10 ESE 1011,5 10 0,0
13.08.2020 04:00:00 22,0 17,9 19,3 4 2 7 4 - 1011,4 10 0,0
13.08.2020 03:00:00 22,5 17,8 19,8 4 2 7 4 - 1011,4 10 0,0
13.08.2020 02:00:00 23,2 17,8 21,4 8 4 14 8 E 1011,7 10 0,0
13.08.2020 01:00:00 24,2 17,9 22,4 8 4 14 8 ESE 1012,1 10 0,0
13.08.2020 00:00:00 24,8 17,9 23,6 9 5 14 8 ENE 1012,3 10 0,0
12.08.2020 23:00:00 25,9 17,5 24,9 8 4 14 8 ESE 1012,9 10 0,0
12.08.2020 22:00:00 26,7 17,0 25,8 15 8 22 12 SSE 1012,4 10 0,0
12.08.2020 21:00:00 29,3 17,5 28,6 11 6 25 14 SE 1011,8 10 0,0
12.08.2020 20:00:00 31,4 18,1 31,5 13 7 22 12 ESE 1011,5 10 0,0
12.08.2020 19:00:00 32,6 16,9 33,3 11 6 22 12 ENE 1011,5 10 0,0
12.08.2020 18:00:00 32,9 17,2 34,5 15 8 25 14 NE 1012,0 10 0,0
12.08.2020 17:00:00 32,8 17,3 35,8 11 6 25 14 ESE 1012,5 10 0,0
12.08.2020 16:00:00 32,5 17,6 35,9 13 7 25 14 E 1012,9 10 0,0
12.08.2020 15:00:00 32,0 17,5 35,7 15 8 25 14 E 1013,4 10 0,0
12.08.2020 14:00:00 31,2 18,0 34,5 16 9 29 16 SE 1013,7 10 0,0
12.08.2020 13:00:00 30,0 17,5 33,5 15 8 25 14 E 1013,9 10 0,0
12.08.2020 12:00:00 29,2 17,3 31,9 16 9 29 16 SE 1014,2 10 0,0
12.08.2020 11:00:00 27,4 18,5 29,6 13 7 22 12 SE 1014,4 10 0,0
12.08.2020 10:00:00 24,7 18,3 25,7 13 7 22 12 ESE 1014,4 10 0,0
12.08.2020 09:00:00 24,7 18,2 24,7 15 8 22 12 ESE 1014,6 10 0,0
12.08.2020 08:00:00 23,5 17,8 23,1 11 6 18 10 E 1014,4 10 0,0
12.08.2020 07:00:00 22,2 17,6 20,6 9 5 14 8 E 1014,5 10 0,0
12.08.2020 06:00:00 21,8 17,9 20,4 9 5 14 8 ENE 1014,4 10 0,0
12.08.2020 05:00:00 22,1 17,9 20,6 9 5 18 10 E 1014,1 10 0,0
12.08.2020 04:00:00 22,0 18,4 20,1 2 1 14 8 - 1014,7 10 0,0
12.08.2020 03:00:00 22,7 18,9 21,3 11 6 14 8 NE 1014,6 10 0,0
12.08.2020 02:00:00 23,9 18,1 22,3 5 3 18 10 E 1014,9 10 0,0
12.08.2020 01:00:00 23,9 19,3 22,3 9 5 14 8 E 1014,7 10 0,0
12.08.2020 00:00:00 22,7 21,1 22,0 8 4 14 8 NNW 1014,6 10 0,0
11.08.2020 23:00:00 22,6 21,7 22,2 5 3 14 8 SSE 1015,0 7 0,0
11.08.2020 22:00:00 22,8 21,9 22,4 2 1 11 6 - 1014,5 6 0,0
11.08.2020 21:00:00 23,5 21,4 22,9 13 7 22 12 NNE 1014,2 10 0,2
11.08.2020 20:00:00 23,7 22,0 22,8 5 3 14 8 - 1013,0 10 0,5
11.08.2020 19:00:00 23,7 20,1 22,7 18 10 50 27 E 1014,0 10 3,0
11.08.2020 18:00:00 34,2 16,4 34,7 9 5 25 14 - 1012,7 10 0,0
11.08.2020 17:00:00 35,2 15,9 38,0 11 6 22 12 E 1013,2 10 0,0
11.08.2020 16:00:00 34,8 16,8 38,6 11 6 22 12 SE 1013,6 10 0,0
11.08.2020 15:00:00 34,2 17,8 38,3 13 7 25 14 E 1014,0 10 0,0
11.08.2020 14:00:00 33,1 17,7 37,6 13 7 25 14 E 1014,4 10 0,0
11.08.2020 13:00:00 32,0 17,8 36,1 15 8 25 14 ENE 1014,7 10 0,0
11.08.2020 12:00:00 30,8 18,2 34,6 11 6 22 12 ENE 1014,8 10 0,0
11.08.2020 11:00:00 28,9 18,3 32,5 9 5 18 10 ENE 1014,8 10 0,0
11.08.2020 10:00:00 26,7 17,7 29,0 9 5 18 10 E 1014,7 10 0,0
11.08.2020 09:00:00 25,1 17,7 26,2 8 4 14 8 E 1014,7 10 0,0
11.08.2020 08:00:00 23,2 17,5 23,2 9 5 18 10 E 1014,3 10 0,0
11.08.2020 07:00:00 22,1 17,3 21,1 11 6 18 10 ENE 1014,1 10 0,0
11.08.2020 06:00:00 22,0 17,4 20,1 11 6 14 8 ENE 1014,2 22 0,0
11.08.2020 05:00:00 22,5 17,3 20,4 8 4 14 8 ENE 1014,1 10 0,0
11.08.2020 04:00:00 23,2 17,1 20,8 8 4 14 8 ENE 1014,1 10 0,0
11.08.2020 03:00:00 23,8 16,9 22,0 9 5 14 8 ENE 1014,3 10 0,0
11.08.2020 02:00:00 22,3 16,8 20,2 8 4 14 8 NNE 1014,4 10 0,0
11.08.2020 01:00:00 23,7 16,8 21,1 9 5 14 8 NNE 1014,6 10 0,0
11.08.2020 00:00:00 26,7 16,5 25,1 11 6 18 10 ENE 1014,3 10 0,0
10.08.2020 23:00:00 27,7 16,5 26,2 11 6 18 10 NE 1014,4 10 0,0
10.08.2020 22:00:00 28,8 16,4 27,2 13 7 18 10 NE 1014,1 10 0,0
10.08.2020 21:00:00 30,3 15,9 29,0 13 7 22 12 ENE 1013,5 10 0,0
10.08.2020 20:00:00 31,5 15,3 31,2 18 10 25 14 NNE 1013,1 10 0,0
10.08.2020 19:00:00 32,9 15,4 33,6 15 8 25 14 ENE 1012,9 10 0,0
10.08.2020 18:00:00 33,8 15,7 35,8 15 8 25 14 ENE 1012,9 10 0,0
10.08.2020 17:00:00 33,6 14,9 36,9 13 7 25 14 ESE 1013,4 10 0,0
10.08.2020 16:00:00 33,3 14,3 36,2 11 6 25 14 - 1013,7 10 0,0
10.08.2020 15:00:00 32,8 14,3 34,6 13 7 22 12 E 1014,0 10 0,0
10.08.2020 14:00:00 32,8 15,4 36,8 13 7 25 14 ENE 1014,4 10 0,0
10.08.2020 13:00:00 31,6 16,3 35,2 11 6 25 14 E 1014,6 10 0,0
10.08.2020 12:00:00 30,8 16,7 34,6 13 7 18 10 ESE 1014,7 10 0,0
10.08.2020 11:00:00 28,0 17,4 31,9 11 6 18 10 E 1014,8 10 0,0
10.08.2020 10:00:00 26,2 17,7 29,0 9 5 14 8 ENE 1014,9 10 0,0
10.08.2020 09:00:00 24,4 17,7 25,5 11 6 14 8 ENE 1014,7 10 0,0
10.08.2020 08:00:00 22,1 17,3 21,4 9 5 14 8 ENE 1014,7 10 0,0
10.08.2020 07:00:00 20,4 17,3 19,0 4 2 14 8 E 1014,7 10 0,0
10.08.2020 06:00:00 20,5 17,3 17,5 5 3 14 8 E 1014,7 10 0,0
10.08.2020 05:00:00 20,1 17,0 17,4 5 3 11 6 NE 1014,8 10 0,0
10.08.2020 04:00:00 20,8 16,7 18,2 4 2 14 8 - 1015,5 10 0,0
10.08.2020 03:00:00 22,9 17,0 21,2 9 5 14 8 E 1015,7 10 0,0
10.08.2020 02:00:00 23,6 16,7 22,1 11 6 14 8 ENE 1015,2 10 0,0
10.08.2020 01:00:00 22,6 16,1 18,6 4 2 14 8 - 1015,4 10 0,0
10.08.2020 00:00:00 24,6 16,4 21,8 5 3 18 10 SSE 1015,0 10 0,0
09.08.2020 23:00:00 26,8 16,3 24,0 8 4 14 8 SE 1015,3 10 0,0
09.08.2020 22:00:00 29,1 17,2 27,9 13 7 18 10 ENE 1015,3 10 0,0

tt = temperature
td = dewpoint
tt 5cm = temperature 5cm
ff = wind speed
fx = gusts
dd = wind direction
ppp = reduced air pressure
vv = visibility
rr = precipitation

Next stations